sat.trackr.live / text

‹ back to catalog

YAOGAN-25 01B

NORAD 40339 · 2014-080B

PAYLOAD ACTIVE UNKNOWN

§ Identity

Operator
Country
PRC
Launch date
2014-12-10
Launch site
JSC
Launch vehicle
Mass (kg)
RCS (m²)
2.39

External: N2YO · Heavens-Above · Gunter

§ Orbital elements

Epoch: 2026-09-20T04:23:02.325984Z

Period
107.03 min
Inclination
63.3867°
Eccentricity
0.0375295
Mean motion
13.45440546 rev/d
Perigee alt
808.8 km
Apogee alt
1,369.3 km
Semi-major
7,467.2 km
B*
1.5696e-4
RAAN
66.1232°
Arg perigee
9.4361°
Mean anomaly
351.3464°
Rev number
57,841

§ Raw data

YAOGAN-25 01B1 40339U 14080B   26263.18266581  .00000052  00000+0  15696-3 0  99942 40339  63.3867  66.1232 0375295   9.4361 351.3464 13.45440546578415

JSON: /api/v1/satellites/40339 · /tle

For live sub-satellite position, see the globe view (requires WebGL).

§ Visibility from observer

Set your observer location to see the next 7 days of passes ≥ 10°. The values pass through the URL so the page stays shareable.

No JS? Fill the form by hand. The geolocation button needs JavaScript.